Time,TemperatureF,DewpointF,PressureIn,WindDirection,WindDirectionDegrees,WindSpeedMPH,WindSpeedGustMPH,Humidity,HourlyPrecipIn,Conditions,Clouds,dailyrainin,SoftwareType,DateUTC
2013-08-04 06:30:00,60.1,55.9,29.94,WNW,292,0.0,3.0,86,0.00,,---,0.00,VWS V14.01,2013-08-04 10:30:00,
2013-08-04 07:15:00,60.7,56.5,29.95,WNW,284,0.0,0.0,86,0.00,,---,0.00,VWS V14.01,2013-08-04 11:15:00,
2013-08-04 07:20:00,60.8,56.6,29.95,WNW,300,0.0,2.0,86,0.00,,---,0.00,VWS V14.01,2013-08-04 11:20:00,
2013-08-04 07:25:00,60.8,56.6,29.95,WNW,300,0.0,2.0,86,0.00,,---,0.00,VWS V14.01,2013-08-04 11:25:00,
2013-08-04 07:30:00,60.9,56.7,29.95,WNW,300,0.0,2.0,86,0.00,,---,0.00,VWS V14.01,2013-08-04 11:30:00,
2013-08-04 07:35:00,61.7,57.5,29.95,WNW,300,1.0,2.0,86,0.00,,---,0.00,VWS V14.01,2013-08-04 11:35:00,
2013-08-04 07:40:00,62.6,58.0,29.95,WNW,300,0.0,2.0,85,0.00,,---,0.00,VWS V14.01,2013-08-04 11:40:00,
2013-08-04 07:45:00,62.9,58.0,29.96,NNE,15,0.0,3.0,84,0.00,,---,0.00,VWS V14.01,2013-08-04 11:45:00,
2013-08-04 07:50:00,62.9,58.0,29.96,NNE,15,0.0,3.0,84,0.00,,---,0.00,VWS V14.01,2013-08-04 11:50:00,
2013-08-04 07:55:00,63.1,58.5,29.95,NNE,15,0.0,1.0,85,0.00,,---,0.00,VWS V14.01,2013-08-04 11:55:00,
2013-08-04 08:00:00,63.4,58.2,29.96,NNE,15,0.0,1.0,83,0.00,,---,0.00,VWS V14.01,2013-08-04 12:00:00,
2013-08-04 08:05:00,63.8,58.9,29.96,NW,324,3.0,3.0,84,0.00,,---,0.00,VWS V14.01,2013-08-04 12:05:00,
2013-08-04 08:10:00,63.8,58.5,29.96,SSW,195,2.0,4.0,83,0.00,,---,0.00,VWS V14.01,2013-08-04 12:10:00,
2013-08-04 08:15:00,63.8,58.5,29.96,West,267,1.0,4.0,83,0.00,,---,0.00,VWS V14.01,2013-08-04 12:15:00,
2013-08-04 08:20:00,63.7,58.5,29.95,West,263,2.0,4.0,83,0.00,,---,0.00,VWS V14.01,2013-08-04 12:20:00,
2013-08-04 08:25:00,63.9,59.0,29.96,West,263,0.0,1.0,84,0.00,,---,0.00,VWS V14.01,2013-08-04 12:25:00,
2013-08-04 08:30:00,64.7,59.4,29.96,WNW,287,3.0,8.0,83,0.00,,---,0.00,VWS V14.01,2013-08-04 12:30:00,
2013-08-04 08:35:00,65.4,59.8,29.96,WNW,298,2.0,8.0,82,0.00,,---,0.00,VWS V14.01,2013-08-04 12:35:00,
2013-08-04 08:40:00,65.5,59.2,29.96,WNW,297,0.0,8.0,80,0.00,,---,0.00,VWS V14.01,2013-08-04 12:40:00,
2013-08-04 08:45:00,65.4,59.4,29.96,WSW,251,1.0,8.0,81,0.00,,---,0.00,VWS V14.01,2013-08-04 12:45:00,
2013-08-04 08:50:00,65.4,59.8,29.96,WNW,298,0.0,8.0,82,0.00,,---,0.00,VWS V14.01,2013-08-04 12:50:00,
2013-08-04 08:55:00,65.3,59.0,29.96,NNW,340,2.0,5.0,80,0.00,,---,0.00,VWS V14.01,2013-08-04 12:55:00,
2013-08-04 09:00:00,65.3,59.3,29.96,NNW,341,0.0,5.0,81,0.00,,---,0.00,VWS V14.01,2013-08-04 13:00:00,
2013-08-04 09:05:00,65.2,59.2,29.96,NW,323,1.0,5.0,81,0.00,,---,0.00,VWS V14.01,2013-08-04 13:05:00,
2013-08-04 09:10:00,65.4,59.4,29.96,WNW,294,0.0,5.0,81,0.00,,---,0.00,VWS V14.01,2013-08-04 13:10:00,
2013-08-04 09:15:00,65.7,59.7,29.96,West,273,3.0,5.0,81,0.00,,---,0.00,VWS V14.01,2013-08-04 13:15:00,
2013-08-04 09:20:00,65.8,59.5,29.96,NW,309,0.0,5.0,80,0.00,,---,0.00,VWS V14.01,2013-08-04 13:20:00,
2013-08-04 09:25:00,66.2,60.2,29.96,NW,306,1.0,1.0,81,0.00,,---,0.00,VWS V14.01,2013-08-04 13:25:00,
2013-08-04 09:30:00,66.3,60.0,29.96,NNW,330,2.0,4.0,80,0.00,,---,0.00,VWS V14.01,2013-08-04 13:30:00,
2013-08-04 09:35:00,66.4,60.4,29.96,NNW,330,0.0,4.0,81,0.00,,---,0.00,VWS V14.01,2013-08-04 13:35:00,
2013-08-04 09:40:00,66.5,59.8,29.96,NW,306,0.0,4.0,79,0.00,,---,0.00,VWS V14.01,2013-08-04 13:40:00,
2013-08-04 09:45:00,66.7,60.3,29.97,NW,326,0.0,5.0,80,0.00,,---,0.00,VWS V14.01,2013-08-04 13:45:00,
2013-08-04 09:50:00,67.0,59.9,29.97,WNW,297,1.0,6.0,78,0.00,,---,0.00,VWS V14.01,2013-08-04 13:50:00,
2013-08-04 09:55:00,67.0,59.6,29.96,WNW,299,2.0,5.0,77,0.00,,---,0.00,VWS V14.01,2013-08-04 13:55:00,
2013-08-04 09:56:00,67.0,59.6,29.97,WNW,299,1.0,5.0,77,0.00,,---,0.00,VWS V14.01,2013-08-04 13:56:00,
2013-08-04 10:01:00,67.0,59.6,29.97,NW,308,1.0,5.0,77,0.00,,---,0.00,VWS V14.01,2013-08-04 14:01:00,
2013-08-04 10:06:00,67.3,59.8,29.97,WNW,303,4.0,6.0,77,0.00,,---,0.00,VWS V14.01,2013-08-04 14:06:00,
2013-08-04 10:11:00,67.4,59.6,29.97,WSW,250,2.0,6.0,76,0.00,,---,0.00,VWS V14.01,2013-08-04 14:11:00,
2013-08-04 10:16:00,67.4,59.6,29.97,WNW,284,1.0,6.0,76,0.00,,---,0.00,VWS V14.01,2013-08-04 14:16:00,
2013-08-04 10:21:00,67.3,59.8,29.97,WNW,284,2.0,6.0,77,0.00,,---,0.00,VWS V14.01,2013-08-04 14:21:00,
2013-08-04 10:26:00,67.0,59.2,29.97,WNW,284,1.0,2.0,76,0.00,,---,0.00,VWS V14.01,2013-08-04 14:26:00,
2013-08-04 10:30:00,66.9,59.5,29.97,SSW,210,2.0,4.0,77,0.00,,---,0.00,VWS V14.01,2013-08-04 14:30:00,
2013-08-04 10:36:00,67.0,59.6,29.97,SSW,211,2.0,4.0,77,0.00,,---,0.00,VWS V14.01,2013-08-04 14:36:00,
2013-08-04 10:41:00,67.2,59.8,29.97,WNW,288,3.0,4.0,77,0.00,,---,0.00,VWS V14.01,2013-08-04 14:41:00,
2013-08-04 10:46:00,67.4,59.6,29.97,WNW,288,2.0,4.0,76,0.00,,---,0.00,VWS V14.01,2013-08-04 14:46:00,
2013-08-04 10:50:00,67.6,59.4,29.97,NNW,338,1.0,5.0,75,0.00,,---,0.00,VWS V14.01,2013-08-04 14:50:00,
2013-08-04 10:55:00,67.5,59.7,29.97,NNW,338,0.0,3.0,76,0.00,,---,0.00,VWS V14.01,2013-08-04 14:55:00,
2013-08-04 11:01:00,67.4,59.2,29.97,NNW,342,1.0,3.0,75,0.00,,---,0.00,VWS V14.01,2013-08-04 15:01:00,
2013-08-04 11:06:00,67.1,59.3,29.98,NNW,342,0.0,3.0,76,0.00,,---,0.00,VWS V14.01,2013-08-04 15:06:00,
2013-08-04 11:11:00,67.0,59.6,29.98,NNW,342,0.0,3.0,77,0.00,,---,0.00,VWS V14.01,2013-08-04 15:11:00,
2013-08-04 11:16:00,67.0,59.2,29.98,NNW,342,0.0,4.0,76,0.00,,---,0.00,VWS V14.01,2013-08-04 15:16:00,
2013-08-04 11:21:00,67.0,58.8,29.98,NNE,13,1.0,4.0,75,0.00,,---,0.00,VWS V14.01,2013-08-04 15:21:00,
2013-08-04 11:26:00,66.8,58.6,29.98,NNE,13,1.0,3.0,75,0.00,,---,0.00,VWS V14.01,2013-08-04 15:26:00,
2013-08-04 11:31:00,67.0,58.8,29.98,North,349,3.0,4.0,75,0.00,,---,0.00,VWS V14.01,2013-08-04 15:31:00,
2013-08-04 11:36:00,68.4,59.8,29.98,NNW,328,1.0,4.0,74,0.00,,---,0.00,VWS V14.01,2013-08-04 15:36:00,
2013-08-04 11:41:00,69.1,60.1,29.98,NNW,328,2.0,4.0,73,0.00,,---,0.00,VWS V14.01,2013-08-04 15:41:00,
2013-08-04 11:46:00,68.7,59.3,29.99,NW,323,0.0,4.0,72,0.00,,---,0.00,VWS V14.01,2013-08-04 15:46:00,
2013-08-04 11:51:00,69.4,61.1,29.98,NE,38,2.0,4.0,75,0.00,,---,0.00,VWS V14.01,2013-08-04 15:51:00,
2013-08-04 11:56:00,70.4,61.7,29.98,WSW,241,5.0,5.0,74,0.00,,---,0.00,VWS V14.01,2013-08-04 15:56:00,
2013-08-04 12:01:00,71.1,60.0,29.98,WNW,301,0.0,5.0,68,0.00,,---,0.00,VWS V14.01,2013-08-04 16:01:00,
2013-08-04 12:06:00,71.0,60.7,29.98,NNW,335,1.0,9.0,70,0.00,,---,0.00,VWS V14.01,2013-08-04 16:06:00,
2013-08-04 12:11:00,70.7,59.6,29.98,NNE,12,3.0,9.0,68,0.00,,---,0.00,VWS V14.01,2013-08-04 16:11:00,
2013-08-04 12:16:00,71.0,61.9,29.98,NNE,21,0.0,9.0,73,0.00,,---,0.00,VWS V14.01,2013-08-04 16:16:00,
2013-08-04 12:21:00,71.6,60.9,29.98,ENE,74,3.0,9.0,69,0.00,,---,0.00,VWS V14.01,2013-08-04 16:21:00,
2013-08-04 12:26:00,71.1,59.2,29.97,NW,312,1.0,3.0,66,0.00,,---,0.00,VWS V14.01,2013-08-04 16:26:00,
2013-08-04 12:31:00,70.2,59.6,29.97,NE,36,2.0,4.0,69,0.00,,---,0.00,VWS V14.01,2013-08-04 16:31:00,
2013-08-04 12:36:00,69.7,59.9,29.97,NNW,336,1.0,4.0,71,0.00,,---,0.00,VWS V14.01,2013-08-04 16:36:00,
2013-08-04 12:41:00,69.7,59.5,29.98,NNE,30,2.0,5.0,70,0.00,,---,0.00,VWS V14.01,2013-08-04 16:41:00,
2013-08-04 12:46:00,69.8,59.2,29.98,NW,308,1.0,7.0,69,0.00,,---,0.00,VWS V14.01,2013-08-04 16:46:00,
2013-08-04 12:51:00,69.9,58.9,29.98,NW,318,3.0,7.0,68,0.00,,---,0.00,VWS V14.01,2013-08-04 16:51:00,
2013-08-04 12:56:00,71.0,59.5,29.98,NNW,347,2.0,6.0,67,0.00,,---,0.00,VWS V14.01,2013-08-04 16:56:00,
2013-08-04 13:01:00,71.7,58.0,29.97,WNW,303,1.0,6.0,62,0.00,,---,0.00,VWS V14.01,2013-08-04 17:01:00,
2013-08-04 13:06:00,72.2,58.5,29.97,West,267,2.0,6.0,62,0.00,,---,0.00,VWS V14.01,2013-08-04 17:06:00,
2013-08-04 13:11:00,72.2,57.1,29.97,West,277,3.0,7.0,59,0.00,,---,0.00,VWS V14.01,2013-08-04 17:11:00,
2013-08-04 13:16:00,72.0,58.7,29.97,NW,321,2.0,7.0,63,0.00,,---,0.00,VWS V14.01,2013-08-04 17:16:00,
2013-08-04 13:21:00,72.5,58.3,29.97,West,273,2.0,7.0,61,0.00,,---,0.00,VWS V14.01,2013-08-04 17:21:00,
2013-08-04 13:26:00,72.5,57.8,29.97,WNW,288,2.0,4.0,60,0.00,,---,0.00,VWS V14.01,2013-08-04 17:26:00,
2013-08-04 13:31:00,72.3,57.7,29.97,NW,317,0.0,5.0,60,0.00,,---,0.00,VWS V14.01,2013-08-04 17:31:00,
2013-08-04 13:36:00,71.8,56.2,29.98,West,268,0.0,6.0,58,0.00,,---,0.00,VWS V14.01,2013-08-04 17:36:00,
2013-08-04 13:41:00,71.1,57.0,29.98,WNW,284,4.0,7.0,61,0.00,,---,0.00,VWS V14.01,2013-08-04 17:41:00,
2013-08-04 13:46:00,71.2,56.6,29.98,NNW,347,0.0,7.0,60,0.00,,---,0.00,VWS V14.01,2013-08-04 17:46:00,
2013-08-04 13:51:00,71.1,55.6,29.98,NW,319,2.0,7.0,58,0.00,,---,0.00,VWS V14.01,2013-08-04 17:51:00,
2013-08-04 13:56:00,71.3,56.7,29.98,NW,319,3.0,5.0,60,0.00,,---,0.00,VWS V14.01,2013-08-04 17:56:00,
2013-08-04 14:01:00,72.0,57.8,29.98,NNE,23,0.0,5.0,61,0.00,,---,0.00,VWS V14.01,2013-08-04 18:01:00,
2013-08-04 14:07:00,72.1,57.5,29.98,NW,319,4.0,5.0,60,0.00,,---,0.00,VWS V14.01,2013-08-04 18:07:00,
2013-08-04 14:12:00,71.5,57.4,29.98,NNW,333,0.0,6.0,61,0.00,,---,0.00,VWS V14.01,2013-08-04 18:12:00,
2013-08-04 14:17:00,71.5,57.4,29.98,NNW,338,3.0,6.0,61,0.00,,---,0.00,VWS V14.01,2013-08-04 18:17:00,
2013-08-04 14:22:00,71.8,59.0,29.98,NE,44,1.0,6.0,64,0.00,,---,0.00,VWS V14.01,2013-08-04 18:22:00,
2013-08-04 14:27:00,72.6,58.8,29.98,North,350,3.0,5.0,62,0.00,,---,0.00,VWS V14.01,2013-08-04 18:27:00,
2013-08-04 14:32:00,72.5,57.4,29.98,WNW,289,2.0,5.0,59,0.00,,---,0.00,VWS V14.01,2013-08-04 18:32:00,
2013-08-04 14:37:00,72.3,57.7,29.98,North,360,4.0,5.0,60,0.00,,---,0.00,VWS V14.01,2013-08-04 18:37:00,
2013-08-04 14:42:00,72.9,58.7,29.98,NE,55,0.0,7.0,61,0.00,,---,0.00,VWS V14.01,2013-08-04 18:42:00,
2013-08-04 14:47:00,73.6,59.8,29.98,SE,136,2.0,7.0,62,0.00,,---,0.00,VWS V14.01,2013-08-04 18:47:00,
2013-08-04 14:52:00,73.7,58.0,29.98,NW,305,1.0,7.0,58,0.00,,---,0.00,VWS V14.01,2013-08-04 18:52:00,
2013-08-04 14:57:00,73.1,58.4,29.98,NW,325,1.0,3.0,60,0.00,,---,0.00,VWS V14.01,2013-08-04 18:57:00,
2013-08-04 15:02:00,73.1,59.3,29.98,NNW,338,1.0,4.0,62,0.00,,---,0.00,VWS V14.01,2013-08-04 19:02:00,
2013-08-04 15:07:00,72.4,57.8,29.98,NNW,337,1.0,5.0,60,0.00,,---,0.00,VWS V14.01,2013-08-04 19:07:00,
2013-08-04 15:12:00,71.4,56.8,29.98,North,9,1.0,5.0,60,0.00,,---,0.00,VWS V14.01,2013-08-04 19:12:00,
2013-08-04 15:17:00,71.0,57.8,29.98,West,267,4.0,5.0,63,0.00,,---,0.00,VWS V14.01,2013-08-04 19:17:00,
2013-08-04 15:22:00,71.6,58.8,29.99,NNW,329,1.0,5.0,64,0.00,,---,0.00,VWS V14.01,2013-08-04 19:22:00,
2013-08-04 15:27:00,72.0,57.8,29.99,SW,224,1.0,5.0,61,0.00,,---,0.00,VWS V14.01,2013-08-04 19:27:00,
2013-08-04 15:32:00,71.6,57.5,29.99,West,281,2.0,6.0,61,0.00,,---,0.00,VWS V14.01,2013-08-04 19:32:00,
2013-08-04 15:37:00,71.4,57.7,29.99,NNW,342,1.0,6.0,62,0.00,,---,0.00,VWS V14.01,2013-08-04 19:37:00,
2013-08-04 15:42:00,72.3,58.1,29.99,North,11,0.0,6.0,61,0.00,,---,0.00,VWS V14.01,2013-08-04 19:42:00,
2013-08-04 15:47:00,72.2,57.6,29.99,NW,314,1.0,6.0,60,0.00,,---,0.00,VWS V14.01,2013-08-04 19:47:00,
2013-08-04 15:52:00,71.2,57.1,29.99,NW,320,2.0,6.0,61,0.00,,---,0.00,VWS V14.01,2013-08-04 19:52:00,
2013-08-04 15:57:00,70.7,56.6,29.99,NW,320,3.0,5.0,61,0.00,,---,0.00,VWS V14.01,2013-08-04 19:57:00,
2013-08-04 16:02:00,70.8,56.2,30.00,NNW,329,3.0,7.0,60,0.00,,---,0.00,VWS V14.01,2013-08-04 20:02:00,
2013-08-04 16:07:00,70.8,55.8,29.99,NW,309,0.0,7.0,59,0.00,,---,0.00,VWS V14.01,2013-08-04 20:07:00,
2013-08-04 16:12:00,70.5,56.0,29.99,NW,325,0.0,7.0,60,0.00,,---,0.00,VWS V14.01,2013-08-04 20:12:00,
2013-08-04 16:17:00,70.5,56.9,30.00,WNW,293,1.0,7.0,62,0.00,,---,0.00,VWS V14.01,2013-08-04 20:17:00,
2013-08-04 16:22:00,71.0,56.9,29.99,WNW,290,0.0,7.0,61,0.00,,---,0.00,VWS V14.01,2013-08-04 20:22:00,
2013-08-04 16:27:00,71.3,56.7,29.99,NW,309,1.0,4.0,60,0.00,,---,0.00,VWS V14.01,2013-08-04 20:27:00,
2013-08-04 16:32:00,71.2,56.6,29.99,NNW,345,2.0,10.0,60,0.00,,---,0.00,VWS V14.01,2013-08-04 20:32:00,
2013-08-04 16:37:00,71.5,56.4,29.99,North,5,2.0,10.0,59,0.00,,---,0.00,VWS V14.01,2013-08-04 20:37:00,
2013-08-04 16:42:00,71.2,54.7,29.99,NW,305,2.0,10.0,56,0.00,,---,0.00,VWS V14.01,2013-08-04 20:42:00,
2013-08-04 16:47:00,70.8,55.3,29.99,North,5,2.0,10.0,58,0.00,,---,0.00,VWS V14.01,2013-08-04 20:47:00,
2013-08-04 16:52:00,70.4,55.9,30.00,North,355,0.0,10.0,60,0.00,,---,0.00,VWS V14.01,2013-08-04 20:52:00,
2013-08-04 16:57:00,70.1,56.0,30.00,NW,306,2.0,2.0,61,0.00,,---,0.00,VWS V14.01,2013-08-04 20:57:00,
2013-08-04 17:02:00,70.0,56.0,30.00,WNW,301,1.0,5.0,61,0.00,,---,0.00,VWS V14.01,2013-08-04 21:02:00,
2013-08-04 17:07:00,70.5,56.0,30.00,WNW,302,3.0,5.0,60,0.00,,---,0.00,VWS V14.01,2013-08-04 21:07:00,
2013-08-04 17:12:00,70.7,55.7,29.99,NW,311,2.0,7.0,59,0.00,,---,0.00,VWS V14.01,2013-08-04 21:12:00,
2013-08-04 17:17:00,70.8,55.8,29.99,SSE,165,4.0,7.0,59,0.00,,---,0.00,VWS V14.01,2013-08-04 21:17:00,
2013-08-04 17:22:00,70.7,55.2,29.99,WNW,282,0.0,7.0,58,0.00,,---,0.00,VWS V14.01,2013-08-04 21:22:00,
2013-08-04 17:27:00,71.0,55.5,29.99,NW,306,3.0,5.0,58,0.00,,---,0.00,VWS V14.01,2013-08-04 21:27:00,
2013-08-04 17:32:00,71.2,56.2,29.99,NNW,340,1.0,7.0,59,0.00,,---,0.00,VWS V14.01,2013-08-04 21:32:00,
2013-08-04 17:37:00,71.0,56.0,29.99,NNE,15,1.0,7.0,59,0.00,,---,0.00,VWS V14.01,2013-08-04 21:37:00,
2013-08-04 17:42:00,70.6,55.1,29.99,NW,311,2.0,7.0,58,0.00,,---,0.00,VWS V14.01,2013-08-04 21:42:00,
2013-08-04 17:47:00,70.1,55.6,29.99,NW,310,0.0,7.0,60,0.00,,---,0.00,VWS V14.01,2013-08-04 21:47:00,
2013-08-04 17:49:00,70.0,55.5,29.99,NW,310,0.0,7.0,60,0.00,,---,0.00,VWS V14.01,2013-08-04 21:49:00,
2013-08-04 17:54:00,69.7,55.2,29.99,NW,309,1.0,1.0,60,0.00,,---,0.00,VWS V14.01,2013-08-04 21:54:00,
2013-08-04 17:59:00,69.4,54.9,29.99,NE,49,1.0,4.0,60,0.00,,---,0.00,VWS V14.01,2013-08-04 21:59:00,
2013-08-04 18:04:00,69.3,55.7,30.00,NNE,12,2.0,4.0,62,0.00,,---,0.00,VWS V14.01,2013-08-04 22:04:00,
2013-08-04 18:09:00,69.2,55.2,30.00,NNW,329,2.0,6.0,61,0.00,,---,0.00,VWS V14.01,2013-08-04 22:09:00,
2013-08-04 18:14:00,69.0,55.0,30.00,NNW,347,1.0,6.0,61,0.00,,---,0.00,VWS V14.01,2013-08-04 22:14:00,
2013-08-04 18:19:00,68.8,54.8,30.00,NNW,334,1.0,6.0,61,0.00,,---,0.00,VWS V14.01,2013-08-04 22:19:00,
2013-08-04 18:24:00,68.6,55.1,30.00,NW,321,3.0,5.0,62,0.00,,---,0.00,VWS V14.01,2013-08-04 22:24:00,
2013-08-04 18:29:00,68.6,54.6,29.99,NW,319,2.0,5.0,61,0.00,,---,0.00,VWS V14.01,2013-08-04 22:29:00,
2013-08-04 18:34:00,68.6,54.6,30.00,NW,321,1.0,5.0,61,0.00,,---,0.00,VWS V14.01,2013-08-04 22:34:00,
2013-08-04 18:39:00,68.5,54.5,29.99,NW,324,1.0,8.0,61,0.00,,---,0.00,VWS V14.01,2013-08-04 22:39:00,
2013-08-04 18:44:00,68.4,54.4,29.99,WNW,302,2.0,8.0,61,0.00,,---,0.00,VWS V14.01,2013-08-04 22:44:00,
2013-08-04 18:49:00,68.2,54.7,30.00,NW,308,1.0,8.0,62,0.00,,---,0.00,VWS V14.01,2013-08-04 22:49:00,
2013-08-04 18:54:00,68.1,54.6,30.00,NW,311,0.0,2.0,62,0.00,,---,0.00,VWS V14.01,2013-08-04 22:54:00,
2013-08-04 18:59:00,68.0,54.5,30.00,NNE,26,0.0,5.0,62,0.00,,---,0.00,VWS V14.01,2013-08-04 22:59:00,
2013-08-04 19:04:00,67.9,54.4,30.00,NW,316,1.0,5.0,62,0.00,,---,0.00,VWS V14.01,2013-08-04 23:04:00,
2013-08-04 19:09:00,67.8,53.9,30.00,NW,316,0.0,5.0,61,0.00,,---,0.00,VWS V14.01,2013-08-04 23:09:00,
2013-08-04 19:14:00,67.7,54.7,30.00,NW,318,0.0,5.0,63,0.00,,---,0.00,VWS V14.01,2013-08-04 23:14:00,
2013-08-04 19:19:00,67.5,54.0,30.00,NNW,345,1.0,5.0,62,0.00,,---,0.00,VWS V14.01,2013-08-04 23:19:00,
2013-08-04 19:24:00,67.4,54.4,30.00,NNW,345,0.0,1.0,63,0.00,,---,0.00,VWS V14.01,2013-08-04 23:24:00,
2013-08-04 19:29:00,67.2,54.2,30.00,NNW,345,0.0,3.0,63,0.00,,---,0.00,VWS V14.01,2013-08-04 23:29:00,
2013-08-04 19:34:00,67.0,54.0,30.00,NNW,345,1.0,3.0,63,0.00,,---,0.00,VWS V14.01,2013-08-04 23:34:00,
2013-08-04 19:39:00,66.8,54.2,30.00,West,275,0.0,4.0,64,0.00,,---,0.00,VWS V14.01,2013-08-04 23:39:00,
2013-08-04 19:44:00,66.5,54.4,30.00,West,277,2.0,4.0,65,0.00,,---,0.00,VWS V14.01,2013-08-04 23:44:00,
2013-08-04 19:49:00,66.3,54.6,30.00,West,277,0.0,4.0,66,0.00,,---,0.00,VWS V14.01,2013-08-04 23:49:00,
2013-08-04 19:54:00,66.1,54.0,30.01,West,281,0.0,1.0,65,0.00,,---,0.00,VWS V14.01,2013-08-04 23:54:00,
2013-08-04 19:59:00,66.0,54.7,30.01,West,281,0.0,2.0,67,0.00,,---,0.00,VWS V14.01,2013-08-04 23:59:00,
2013-08-04 20:04:00,65.8,54.5,30.01,WNW,282,0.0,2.0,67,0.00,,---,0.00,VWS V14.01,2013-08-05 00:04:00,
2013-08-04 20:09:00,65.6,54.4,30.01,WNW,282,2.0,2.0,67,0.00,,---,0.00,VWS V14.01,2013-08-05 00:09:00,
2013-08-04 20:14:00,65.2,54.4,30.01,WNW,284,0.0,3.0,68,0.00,,---,0.00,VWS V14.01,2013-08-05 00:14:00,
2013-08-04 20:19:00,64.9,54.5,30.01,WNW,284,0.0,3.0,69,0.00,,---,0.00,VWS V14.01,2013-08-05 00:19:00,
2013-08-04 20:24:00,64.6,54.2,30.01,WNW,284,0.0,0.0,69,0.00,,---,0.00,VWS V14.01,2013-08-05 00:24:00,
2013-08-04 20:29:00,64.3,54.7,30.01,WNW,284,1.0,1.0,71,0.00,,---,0.00,VWS V14.01,2013-08-05 00:29:00,
2013-08-04 20:34:00,63.8,54.6,30.01,WNW,284,2.0,2.0,72,0.00,,---,0.00,VWS V14.01,2013-08-05 00:34:00,
2013-08-04 20:39:00,63.3,54.5,30.01,WNW,284,0.0,2.0,73,0.00,,---,0.00,VWS V14.01,2013-08-05 00:39:00,
2013-08-04 20:44:00,63.0,54.2,30.02,WNW,284,0.0,2.0,73,0.00,,---,0.00,VWS V14.01,2013-08-05 00:44:00,
2013-08-04 20:49:00,62.8,53.7,30.02,WNW,284,0.0,2.0,72,0.00,,---,0.00,VWS V14.01,2013-08-05 00:49:00,
2013-08-04 20:54:00,62.6,53.8,30.02,WNW,284,0.0,0.0,73,0.00,,---,0.00,VWS V14.01,2013-08-05 00:54:00,
2013-08-04 20:59:00,62.3,53.5,30.02,WNW,284,0.0,1.0,73,0.00,,---,0.00,VWS V14.01,2013-08-05 00:59:00,
2013-08-04 21:04:00,62.2,53.5,30.02,WNW,284,0.0,1.0,73,0.00,,---,0.00,VWS V14.01,2013-08-05 01:04:00,
2013-08-04 21:09:00,62.0,53.3,30.03,WNW,284,0.0,1.0,73,0.00,,---,0.00,VWS V14.01,2013-08-05 01:09:00,
2013-08-04 21:14:00,61.9,53.2,30.03,WNW,290,0.0,3.0,73,0.00,,---,0.00,VWS V14.01,2013-08-05 01:14:00,
2013-08-04 21:19:00,61.8,53.1,30.03,WNW,290,0.0,3.0,73,0.00,,---,0.00,VWS V14.01,2013-08-05 01:19:00,
2013-08-04 21:24:00,61.7,53.0,30.03,WNW,290,0.0,1.0,73,0.00,,---,0.00,VWS V14.01,2013-08-05 01:24:00,
2013-08-04 21:29:00,61.5,53.2,30.03,WNW,290,0.0,1.0,74,0.00,,---,0.00,VWS V14.01,2013-08-05 01:29:00,
2013-08-04 21:34:00,61.3,53.3,30.03,WNW,290,2.0,2.0,75,0.00,,---,0.00,VWS V14.01,2013-08-05 01:34:00,
2013-08-04 21:39:00,61.1,53.1,30.03,WNW,290,0.0,2.0,75,0.00,,---,0.00,VWS V14.01,2013-08-05 01:39:00,
2013-08-04 21:44:00,61.0,53.0,30.03,WNW,290,0.0,2.0,75,0.00,,---,0.00,VWS V14.01,2013-08-05 01:44:00,
2013-08-04 21:49:00,61.0,53.4,30.03,WNW,290,0.0,2.0,76,0.00,,---,0.00,VWS V14.01,2013-08-05 01:49:00,
2013-08-04 21:54:00,60.8,53.2,30.03,WNW,290,0.0,0.0,76,0.00,,---,0.00,VWS V14.01,2013-08-05 01:54:00,
2013-08-04 21:59:00,60.7,53.5,30.03,WNW,295,0.0,2.0,77,0.00,,---,0.00,VWS V14.01,2013-08-05 01:59:00,
2013-08-04 22:04:00,60.5,53.3,30.03,WNW,295,0.0,2.0,77,0.00,,---,0.00,VWS V14.01,2013-08-05 02:04:00,
2013-08-04 22:09:00,60.4,52.8,30.03,WNW,295,0.0,2.0,76,0.00,,---,0.00,VWS V14.01,2013-08-05 02:09:00,
2013-08-04 22:14:00,60.4,52.8,30.03,WNW,295,0.0,2.0,76,0.00,,---,0.00,VWS V14.01,2013-08-05 02:14:00,
2013-08-04 22:19:00,60.4,52.8,30.04,WNW,295,0.0,2.0,76,0.00,,---,0.00,VWS V14.01,2013-08-05 02:19:00,
2013-08-04 22:24:00,60.4,52.8,30.04,WNW,295,0.0,0.0,76,0.00,,---,0.00,VWS V14.01,2013-08-05 02:24:00,
2013-08-04 22:29:00,60.3,52.7,30.03,WNW,295,0.0,0.0,76,0.00,,---,0.00,VWS V14.01,2013-08-05 02:29:00,
2013-08-04 22:34:00,60.2,52.6,30.03,WNW,295,0.0,0.0,76,0.00,,---,0.00,VWS V14.01,2013-08-05 02:34:00,
2013-08-04 22:39:00,59.9,52.7,30.04,WNW,295,0.0,0.0,77,0.00,,---,0.00,VWS V14.01,2013-08-05 02:39:00,
2013-08-04 22:44:00,59.6,52.4,30.03,WNW,295,0.0,1.0,77,0.00,,---,0.00,VWS V14.01,2013-08-05 02:44:00,
2013-08-04 22:49:00,59.3,52.5,30.03,WNW,294,0.0,2.0,78,0.00,,---,0.00,VWS V14.01,2013-08-05 02:49:00,
2013-08-04 22:54:00,59.1,52.6,30.03,WNW,294,0.0,1.0,79,0.00,,---,0.00,VWS V14.01,2013-08-05 02:54:00,
2013-08-04 22:59:00,58.8,52.7,30.03,WNW,294,0.0,1.0,80,0.00,,---,0.00,VWS V14.01,2013-08-05 02:59:00,
2013-08-04 23:04:00,58.7,52.6,30.03,WNW,294,0.0,1.0,80,0.00,,---,0.00,VWS V14.01,2013-08-05 03:04:00,
2013-08-04 23:09:00,58.7,52.6,30.03,WNW,294,0.0,1.0,80,0.00,,---,0.00,VWS V14.01,2013-08-05 03:09:00,
2013-08-04 23:14:00,58.8,52.7,30.03,WNW,294,1.0,2.0,80,0.00,,---,0.00,VWS V14.01,2013-08-05 03:14:00,
2013-08-04 23:19:00,59.2,52.7,30.03,WNW,294,2.0,2.0,79,0.00,,---,0.00,VWS V14.01,2013-08-05 03:19:00,
2013-08-04 23:24:00,59.4,52.9,30.03,WNW,294,1.0,1.0,79,0.00,,---,0.00,VWS V14.01,2013-08-05 03:24:00,
2013-08-04 23:29:00,59.6,53.1,30.03,WNW,294,0.0,3.0,79,0.00,,---,0.00,VWS V14.01,2013-08-05 03:29:00,
2013-08-04 23:34:00,59.8,53.3,30.03,WNW,294,2.0,3.0,79,0.00,,---,0.00,VWS V14.01,2013-08-05 03:34:00,
2013-08-04 23:39:00,59.9,53.4,30.03,WNW,294,0.0,3.0,79,0.00,,---,0.00,VWS V14.01,2013-08-05 03:39:00,
2013-08-04 23:44:00,60.0,53.5,30.03,West,275,2.0,4.0,79,0.00,,---,0.00,VWS V14.01,2013-08-05 03:44:00,
2013-08-04 23:49:00,60.1,53.6,30.03,West,275,0.0,4.0,79,0.00,,---,0.00,VWS V14.01,2013-08-05 03:49:00,
2013-08-04 23:54:00,60.2,53.3,30.03,West,276,0.0,2.0,78,0.00,,---,0.00,VWS V14.01,2013-08-05 03:54:00,
2013-08-04 23:59:00,60.2,53.3,30.04,West,276,0.0,3.0,78,0.00,,---,0.00,VWS V14.01,2013-08-05 03:59:00,